Weather History for Mosinee, WI

Change the Weather History Date:

Thursday, November 8, 2012

  Actual Average Record
Temperature  
Mean Temperature 39 °F -  
Max Temperature 46 °F 41 °F 69 °F (1999)
Min Temperature 32 °F 26 °F 6 °F (2003)
Degree Days  
Heating Degree Days 26    
Moisture  
Dew Point 34 °F    
Average Humidity 93    
Maximum Humidity 100    
Minimum Humidity 66    
Precipitation  
Precipitation 0.00 in - - ()
Sea Level Pressure  
Sea Level Pressure 30.07 in    
Wind  
Wind Speed 6 mph (South)    
Max Wind Speed 16 mph    
Max Gust Speed 22 mph    
Visibility 7 miles    
Events      
Averages and records for this station are not official NWS values.
T = Trace of Precipitation, MM = Missing Value Source: NWS Daily Summary

Daily Weather History Graph

Daily Weather History Graph

Search for Another Location

Airport:

Trip Planner

Search our weather history database for the weather conditions in past years. The results will help you decide how hot, cold, wet, or windy it might be!

Date:

Astronomy

Nov. 08, 2012 Rise Set
Actual Time 6:46 AM CST 4:37 PM CST
Civil Twilight 6:15 AM CST 5:08 PM CST
Nautical Twilight 5:40 AM CST 5:43 PM CST
Astronomical Twilight 5:06 AM CST 6:17 PM CST
Moon 12:27 AM CST (11/8) 1:31 PM CST (11/8)
Length of Visible Light 10h 52m
Length of Day
9h 50m
Waning Crescent, 32% of the Moon is Illuminated
Nov 8
Waning Crescent
Nov 13
New
Nov 20
First Quarter
Nov 28
Full
Dec 6
Last Quarter

Hourly Weather History & Observations

Time (CST) Temp. Windchill Dew Point Humidity Pressure Visibility Wind Dir Wind Speed Gust Speed Precip Events Conditions
12:15 AM 32.0 °F 26.4 °F 32.0 °F 100% 30.11 in 4.0 mi South 5.8 mph - N/A   Overcast
12:35 AM 32.0 °F 27.5 °F 32.0 °F 100% 30.11 in 4.0 mi South 4.6 mph - N/A   Overcast
12:55 AM 32.0 °F 27.5 °F 32.0 °F 100% 30.12 in 4.0 mi SSW 4.6 mph - N/A   Overcast
1:15 AM 32.0 °F 27.5 °F 32.0 °F 100% 30.11 in 5.0 mi South 4.6 mph - N/A   Overcast
1:35 AM 32.0 °F 27.5 °F 32.0 °F 100% 30.12 in 4.0 mi SSW 4.6 mph - N/A   Overcast
2:15 AM 32.0 °F 28.7 °F 32.0 °F 100% 30.12 in 5.0 mi South 3.5 mph - N/A   Overcast
2:35 AM 32.0 °F 28.7 °F 32.0 °F 100% 30.12 in 4.0 mi South 3.5 mph - N/A   Overcast
2:55 AM 32.0 °F 28.7 °F 32.0 °F 100% 30.12 in 5.0 mi South 3.5 mph - N/A   Overcast
3:15 AM 32.0 °F 28.7 °F 32.0 °F 100% 30.11 in 5.0 mi SSW 3.5 mph - N/A   Overcast
3:35 AM 33.8 °F 29.6 °F 33.8 °F 100% 30.11 in 5.0 mi SSE 4.6 mph - N/A   Overcast
3:55 AM 33.8 °F 29.6 °F 33.8 °F 100% 30.11 in 5.0 mi SSE 4.6 mph - N/A   Overcast
4:15 AM 33.8 °F 29.6 °F 33.8 °F 100% 30.11 in 5.0 mi South 4.6 mph - N/A   Overcast
4:35 AM 33.8 °F 28.6 °F 33.8 °F 100% 30.10 in 5.0 mi SSE 5.8 mph - N/A   Overcast
5:45 AM 33.8 °F 30.8 °F 33.8 °F 100% 30.10 in 5.0 mi SE 3.5 mph - N/A   Overcast
6:50 AM 33.8 °F 28.6 °F 33.8 °F 100% 30.09 in 7.0 mi South 5.8 mph - N/A   Overcast
7:45 AM 35.6 °F 29.9 °F 35.6 °F 100% 30.10 in 10.0 mi South 6.9 mph - N/A   Mostly Cloudy
8:50 AM 37.4 °F 30.3 °F 35.6 °F 93% 30.10 in 10.0 mi South 10.4 mph - N/A   Mostly Cloudy
9:45 AM 41.0 °F 34.3 °F 35.6 °F 81% 30.09 in 10.0 mi South 11.5 mph - N/A   Clear
10:50 AM 42.8 °F 35.1 °F 35.6 °F 76% 30.07 in 10.0 mi SSW 16.1 mph 21.9 mph N/A   Scattered Clouds
11:50 AM 44.6 °F 38.4 °F 35.6 °F 71% 30.05 in 10.0 mi South 12.7 mph - N/A   Scattered Clouds
12:50 PM 44.6 °F 38.8 °F 35.6 °F 71% 30.01 in 10.0 mi South 11.5 mph - N/A   Mostly Cloudy
1:45 PM 46.4 °F 41.1 °F 35.6 °F 66% 30.00 in 10.0 mi South 11.5 mph - N/A   Clear
4:45 PM 42.8 °F 39.3 °F 35.6 °F 76% 29.99 in 10.0 mi South 5.8 mph - N/A   Clear
5:45 PM 41.0 °F 38.0 °F 35.6 °F 81% 30.00 in 10.0 mi South 4.6 mph - N/A   Clear
6:45 PM 41.0 °F 37.1 °F 35.6 °F 81% 30.01 in 10.0 mi SSW 5.8 mph - N/A   Clear
7:45 PM 39.2 °F 35.0 °F 33.8 °F 81% 30.02 in 10.0 mi South 5.8 mph - N/A   Clear
8:45 PM 35.6 °F 31.7 °F 33.8 °F 93% 30.02 in 10.0 mi South 4.6 mph - N/A   Clear
9:15 PM 35.6 °F 30.7 °F 32.0 °F 87% 30.02 in 10.0 mi South 5.8 mph - N/A   Clear
9:35 PM 33.8 °F 27.7 °F 32.0 °F 93% 30.02 in 10.0 mi South 6.9 mph - N/A   Clear
9:45 PM 33.8 °F 28.6 °F 33.8 °F 100% 30.03 in 10.0 mi SSE 5.8 mph - N/A   Clear
10:15 PM 33.8 °F 29.6 °F 33.8 °F 100% 30.03 in 10.0 mi South 4.6 mph - N/A   Clear
10:35 PM 33.8 °F 29.6 °F 33.8 °F 100% 30.04 in 7.0 mi South 4.6 mph - N/A   Clear
11:15 PM 32.0 °F 27.5 °F 32.0 °F 100% 30.04 in 7.0 mi South 4.6 mph - N/A   Clear
11:35 PM 33.8 °F 30.8 °F 33.8 °F 100% 30.04 in 7.0 mi SSE 3.5 mph - N/A   Clear